Location: Newark
(44.1667°N, 8.2500°E)
Time: 03:42:49
(UTC+00:00)

S-56A Canister/Altair - Pass Details

Date: 18 December 2019
Orbit: 634 x 2498 km, 38.9° (Epoch: 19 January)

Event Time Altitude Azimuth Distance (km) Brightness Sun altitude
Rises 05:31:51 0° 201° (SSW) 4,592 11.5 -14.6°
Reaches altitude 10° 05:35:08 10° 190° (S) 3,881 11.2 -14.0°
Maximum altitude 05:43:46 29° 136° (SE) 3,219 11.4 -12.6°
Drops below altitude 10° 05:54:42 10° 84° (E) 5,006 12.7 -10.8°
Sets 05:59:36 0° 75° (ENE) 6,136 13.1 -9.9°
